Rbgn^[z[y[W
メイン
   新天体発見情報
     Comet P/2024 R3 (PANSTARRS)
投稿するにはまず登録を

スレッド表示 | 古いものから 前のトピック | 次のトピック | 下へ
投稿者 スレッド
佐藤裕久
投稿日時: 2024-9-27 23:05
モデレータ
登録日: 2005-6-12
居住地: 日本
投稿: 2689
オンライン
Comet P/2024 R3 (PANSTARRS)

Yudish Ramanjooloo (ハワイ大学天文研究所)の通報によると、9月8日UT、HaleakalaにあるPan-
STARRS2の1.8-m Ritchey-Chretien 反射望遠鏡で得た画像から彗星を発見した。
1".0のシーイングで得た、4枚45秒のw-バンドサーベイ画像では、2".8(半値全幅:FWHM)の集光した
頭部が見え、p.a.247°に11" のまっすぐな尾がある。
R. Weryk (西オンタリオ大学,物理および天文学科)は、9月9.5日UT、1".2"のシーイングで得た、
2枚60秒のw-バンドフォローアップPan-STARRS2画像では、1".8(FWHM)の集光した頭部が見え、p.a.
245°に向かって18"の尾があると書き込んだ。
小惑星センターのPCCP webpageに公表後、佐藤英貴氏(東京都文京区, 9月9.39-9.40日、60-秒CCD
露出16枚のスタック, 0.51-m f/6.8 アストログラフ, Utah Desert Remote 天文台, Beryl Junction 
近郊, ユタ州, 米国, 遠隔操作:集光の悪い5" x 10"のコマが見え、西に伸びている。4".9の円形
範囲で測定した光度は19.6等であった。9月14.8日、60-秒露出20枚のスタック,0.51-m f/6.8 アス
トログラフ, Siding Spring, NSW, オーストラリア, 遠隔操作: 中程度に集光した4" x 10"のコマ
が見え、西に伸びている。p.a. 220-280°にわたって、10"の扇状の尾がある。5".4の円形範囲で
測定した光度は20.1等であった)らCCD観測者によって彗星状と観測された。

彗星機能の報告は次のとおり、

OC   Date        Reporter           Coma    Tail    PA          Exposures
W62  2024-09-08  J. Maikner         5"       15"    260-265       45x120s
V21  2024-09-09  D. T. Durig        8"       25"    245          100x30s
U94  2024-09-09  H. Sato           10"       10"    260           16x60s
F52  2024-09-09  R. Weryk           0".6     18"    245            2x60s
V21  2024-09-10  D. T. Durig        8"       25"    290           80x30s
L06  2024-09-11  P. Sicoli          2".5      7".7  238           30x300s
V21  2024-09-11  D. T. Durig        8"       25"    288
W62  2024-09-12  J. Maikner         5"       10"    260
Q62  2024-09-14  H. Sato           10"       10"    220-280       20x60s

発見位置は次のとおり、

     2024 UT             R.A. (2000) Decl.       Mag.
     Sept. 8.49160    2 33 38.60   + 9 50 06.6   21.1
           8.50289    2 33 38.51   + 9 50 09.7   20.7
           8.51422    2 33 38.43   + 9 50 12.2   20.7
           8.52559    2 33 38.34   + 9 50 15.2   20.6

MPCの楕円軌道要素、位置推算表は次のとおり、

Orbital elements:
    P/2024 R3 (PANSTARRS)                                                       
Epoch 2024 Oct. 17.0 TT = JDT 2460600.5                                         
T 2024 May 17.04852 TT                                  Rudenko                 
q   2.3862625            (2000.0)            P               Q                  
n   0.17883830     Peri.  313.13514     +0.95796878     +0.24945703             
a   3.1200558      Node    33.17288     -0.12291290     +0.80309667             
e   0.2351859      Incl.   15.00442     -0.25920692     +0.54111637             
P   5.51                                                                        
From 49 observations 2024 Sept. 8-14, mean residual 0".9.                       
                                                                                
Ephemeris:
Date    TT    R. A. (2000) Decl.     Delta      r    Elong.  Phase   m1
2024 08 18    02 29 03.7 +08 03 59   1.9333  2.4377   107.5    23.3  20.3
...
2024 09 02    02 33 35.8 +09 21 26   1.7838  2.4550   120.5    20.7  20.2
...
2024 09 10    02 33 28.4 +09 56 23   1.7130  2.4652   128.1    18.8  20.1
...
2024 09 16    02 32 09.1 +10 19 48   1.6656  2.4732   134.1    17.0  20.0
2024 09 17    02 31 49.7 +10 23 28   1.6583  2.4745   135.1    16.6  20.0
2024 09 18    02 31 28.6 +10 27 05   1.6511  2.4759   136.2    16.3  20.0
...
2024 09 24    02 28 45.5 +10 47 22   1.6116  2.4844   142.6    14.2  20.0
...
2024 10 02    02 23 36.0 +11 10 48   1.5702  2.4962   151.5    11.0  20.0
...
2024 10 17    02 10 16.5 +11 45 04   1.5336  2.5197   169.3     4.2  19.9

(MPEC 2024-S11、CBET 5448)

スレッド表示 | 古いものから 前のトピック | 次のトピック | トップ

投稿するにはまず登録を
 
© 1999 Tsutomu Seki.